{"data":{"norad_id":67666,"epoch":"2026-09-19T20:18:14.008608Z","epoch_age_seconds":125612,"freshness":"FRESH","line1":"1 67666U 26022U   26262.84599547  .00023719  00000+0  73405-3 0  9995","line2":"2 67666  97.2856 294.3707 0000190 147.7783 212.3471 15.33473902 35329","mean_motion":15.33473902,"eccentricity":1.9e-5,"inclination_deg":97.2856,"raan_deg":294.3707,"arg_perigee_deg":147.7783,"mean_anomaly_deg":212.3471,"bstar":0.00073405,"rev_number":3532,"period_min":93.904434768789,"perigee_km":465.32715552153,"apogee_km":465.58721210052,"semimajor_km":6843.594183811,"source":"CELESTRAK","updated_at":"2026-09-20T09:00:43.623577Z"}}